Вернуться в каталог

STARLINK-11226

АктивенСвязьVLEO
NORAD 60907·PAYLOAD·🇺🇸 United States

Запущен Aug 31, 2024 с Cape Canaveral Space Force Station

Loading…

Ближайшие Пролёты (ближайшие 24 часа)

TLE

СвежийSource: CelesTrak SupGP

Эпоха: Sep 14, 2026, 22:36 UTC

1 60907C 24154E   26257.94215278  .00033746  00000+0  27799-3 0  2574
2 60907  53.1571 278.5115 0001267  89.1535 355.7229 15.69691329    17

Отслеживайте STARLINK-11226 в реальном времени с AllMySat

Download on the App Store